Coimbatore International Airport

Jump to: basic info | weather | frequencies | runways | comments

Related pages: nearby airports | nearby navaids | notams | map

Basic information (top)

Codes: CJB VOCB
Location: lon 11.030000, lat 77.043404, elev 1,324 ft / 404 m msl
Status: medium_airport
Scheduled airline service: yes
Links: Wikipedia Mobile

Weather (top)

Current conditions (rec'd 2014/07/23 03:30Z):

VOCB 230330Z 23010KT 5000 -DZ SCT015 OVC080 24/22 Q1012 NOSIG

Airport forecast (rec'd 2014/07/18 00:00Z):

TAF VOCB 172100Z 1800/1906 25010KT 5000 -DZ/HZ SCT015 BKN080 
      BECMG 1804/1806 25012G22KT 6000 
      TEMPO 1809/1815 SCT012 FEW020CB BKN080 
      BECMG 1819/1820 25010KT 5000 HZ 
      BECMG 1903/1904 25010G20KT

Frequencies (top)

Verify before use: may be inaccurate or out of date.

APP: 120.05 MHz (AFTER 0430 HRS UTC)
ATIS: 128.05 MHz ()
TWR: 118.15 MHz ()

Runways (top)

05/23: 8,480 x 150 ft (2,585 x 46 m) — paved — lighted

Latest comments (top)

re: Flying Club: Dude, i been looking for someone ... [read]

more international flights: is there any near future plan to have ... [read]

Flying Club: Anyone interested in starting a flying ... [read]

More... (top)

See also NOTAMs and nearby airports and navaids, or visit the Coimbatore International Airport page at the main OurAirports website..